Stations météo

réclame
Mon MeteoGroup
Orense, Espagne (8048): Température de l'air & dewpoint: 15.10.2018 16:00:00 - 21.10.2018 16:00:00 (CEST)Orense, Espagne (8048): Vitesse du vent: 15.10.2018 16:00:00 - 21.10.2018 16:00:00 (CEST)Orense, Espagne (8048): Direction du vent: 15.10.2018 16:00:00 - 21.10.2018 16:00:00 (CEST)Orense, Espagne (8048): reduced air pressure: 15.10.2018 16:00:00 - 21.10.2018 16:00:00 (CEST)Orense, Espagne (8048): visibility: 15.10.2018 16:00:00 - 21.10.2018 16:00:00 (CEST)Orense, Espagne (8048): Quantités de précipitations: 15.10.2018 16:00:00 - 21.10.2018 16:00:00 (CEST)
Date & Time tt [°C] td [°C] ff [km/h] ff [knt] dd ppp [hPa] vv [km] rr [mm]
21.10.2018 16:00:00 25,1 13,6 4 2 N 1018,1 20 0,0
21.10.2018 15:00:00 22,7 14,3 4 2 SSW 1018,7 20 0,0
21.10.2018 14:00:00 19,1 13,1 4 2 W 1019,9 20 -
21.10.2018 13:00:00 16,3 12,6 4 2 SW 1020,7 15 0,0
21.10.2018 12:00:00 14,2 11,7 2 1 S 1021,4 13 0,0
21.10.2018 11:00:00 12,7 11,4 2 1 SSE 1021,8 11 -
21.10.2018 10:00:00 10,8 9,9 2 1 WSW 1021,9 7 0,0
21.10.2018 09:00:00 10,5 9,4 2 1 SSE 1021,4 - 0,0
21.10.2018 08:00:00 10,9 9,8 2 1 SSW 1020,9 7 -
21.10.2018 07:00:00 11,3 10,0 2 1 ESE 1020,9 7 0,0
21.10.2018 06:00:00 11,6 10,3 2 1 S 1020,5 - 0,0
21.10.2018 05:00:00 12,2 10,4 2 1 SW 1020,7 6 -
21.10.2018 04:00:00 12,9 11,0 2 1 W 1020,7 10 0,0
21.10.2018 03:00:00 13,7 11,4 2 1 ESE 1020,7 11 0,0
21.10.2018 02:00:00 14,7 11,7 2 1 S 1020,6 11 -
21.10.2018 01:00:00 16,5 12,5 4 2 NE 1020,3 14 0,0
21.10.2018 00:00:00 17,1 12,6 4 2 ENE 1020,4 15 0,0
20.10.2018 23:00:00 18,0 12,7 4 2 NNE 1019,3 18 -
20.10.2018 22:00:00 19,0 13,0 5 3 NNE 1018,4 20 0,0
20.10.2018 21:00:00 20,1 13,1 2 1 SW 1018,3 20 0,0
20.10.2018 20:00:00 22,3 12,5 2 1 N 1017,3 20 -
20.10.2018 19:00:00 24,4 12,0 5 3 NE 1016,7 20 0,0
20.10.2018 18:00:00 25,7 12,9 4 2 NNE 1016,9 20 0,0
20.10.2018 17:00:00 25,7 12,2 4 2 N 1016,8 20 -
20.10.2018 16:00:00 25,0 11,9 4 2 N 1017,5 20 0,0
20.10.2018 15:00:00 23,4 11,8 5 3 N 1018,6 20 0,0
20.10.2018 14:00:00 22,2 11,3 5 3 NNW 1019,6 20 -
20.10.2018 13:00:00 20,4 10,8 5 3 NNE 1020,3 20 0,0
20.10.2018 12:00:00 17,1 11,8 4 2 SSW 1020,8 16 0,0
20.10.2018 11:00:00 13,9 11,1 2 1 SSE 1021,3 12 -
20.10.2018 10:00:00 10,9 9,5 2 1 SE 1021,3 8 0,0
20.10.2018 09:00:00 11,0 9,1 2 1 SSE 1020,5 8 0,0
20.10.2018 08:00:00 12,1 9,8 4 2 ESE 1019,7 10 -
20.10.2018 07:00:00 13,5 10,7 4 2 E 1019,4 12 0,0
20.10.2018 06:00:00 14,6 11,2 2 1 NE 1019,1 15 0,0
20.10.2018 05:00:00 15,0 11,2 4 2 NNE 1019,1 15 -
20.10.2018 04:00:00 15,5 11,5 4 2 N 1019,3 18 0,0
20.10.2018 03:00:00 15,8 11,6 4 2 NE 1019,3 19 0,0
20.10.2018 02:00:00 16,2 11,8 8 4 NE 1018,9 19 -
20.10.2018 01:00:00 16,6 12,1 4 2 NNE 1018,4 19 0,0
20.10.2018 00:00:00 17,0 12,5 2 1 NNW 1018,7 18 0,0
19.10.2018 23:00:00 17,6 12,7 4 2 N 1018,2 19 -
19.10.2018 22:00:00 18,2 12,9 5 3 NNE 1017,6 20 0,0
19.10.2018 21:00:00 19,1 13,1 4 2 N 1016,9 20 0,0
19.10.2018 20:00:00 20,1 13,3 4 2 NE 1016,1 20 -
19.10.2018 19:00:00 22,9 13,7 4 2 N 1015,3 20 0,0
19.10.2018 18:00:00 24,7 13,9 5 3 N 1014,3 20 0,0
19.10.2018 17:00:00 25,3 13,5 4 2 N 1014,0 20 -
19.10.2018 16:00:00 24,5 13,1 5 3 N 1014,3 20 0,0
19.10.2018 15:00:00 23,5 12,5 5 3 NNE 1014,7 20 0,0
19.10.2018 14:00:00 21,9 12,4 5 3 N 1015,6 20 -
19.10.2018 13:00:00 20,4 12,4 5 3 NNE 1016,7 20 0,0
19.10.2018 12:00:00 17,8 12,0 5 3 NNW 1017,2 20 0,0
19.10.2018 11:00:00 13,9 11,9 4 2 S 1017,4 19 -
19.10.2018 10:00:00 10,9 10,1 2 1 E 1017,3 12 0,0
19.10.2018 09:00:00 10,8 9,9 4 2 SE 1016,3 10 0,0
19.10.2018 08:00:00 11,2 10,3 2 1 ESE 1016,1 10 -
19.10.2018 07:00:00 11,5 10,2 2 1 WSW 1016,1 9 0,0
19.10.2018 06:00:00 12,1 11,0 2 1 NE 1016,4 16 0,0
19.10.2018 05:00:00 12,0 10,9 2 1 ESE 1016,5 17 -
19.10.2018 04:00:00 11,6 10,3 2 1 ENE 1017,0 15 0,0
19.10.2018 03:00:00 11,9 10,5 2 1 E 1017,0 14 0,0
19.10.2018 02:00:00 12,6 10,8 4 2 W 1017,0 15 -
19.10.2018 01:00:00 13,6 11,3 2 1 W 1016,8 19 0,0
19.10.2018 00:00:00 15,0 11,9 2 1 NE 1016,3 20 0,0
18.10.2018 23:00:00 15,5 11,9 4 2 SSW 1016,0 20 -
18.10.2018 22:00:00 16,5 12,3 4 2 E 1015,2 20 0,0
18.10.2018 21:00:00 18,0 12,2 5 3 NW 1014,4 20 0,0
18.10.2018 20:00:00 19,3 12,3 4 2 W 1013,3 20 -
18.10.2018 19:00:00 21,5 12,6 5 3 NNE 1012,7 20 0,0
18.10.2018 18:00:00 22,6 11,9 5 3 N 1012,6 20 0,0
18.10.2018 17:00:00 21,6 12,4 4 2 NNE 1012,6 20 -
18.10.2018 16:00:00 22,9 13,1 5 3 N 1012,6 20 0,0
18.10.2018 15:00:00 21,2 12,9 4 2 N 1013,2 20 0,0
18.10.2018 14:00:00 20,5 13,0 5 3 NE 1013,7 20 -
18.10.2018 13:00:00 19,3 13,2 8 4 ENE 1014,1 20 0,0
18.10.2018 12:00:00 17,0 13,9 4 2 NNE 1014,5 20 0,0
18.10.2018 11:00:00 13,7 12,9 2 1 N 1014,7 13 -
18.10.2018 10:00:00 12,3 11,8 4 2 ENE 1014,3 8 0,0
18.10.2018 09:00:00 11,9 11,4 2 1 SSE 1013,9 3,0 0,0
18.10.2018 08:00:00 12,3 11,5 2 1 SSW 1013,3 3,6 -
18.10.2018 07:00:00 12,4 11,5 2 1 NW 1012,9 7 0,2
18.10.2018 06:00:00 13,2 12,4 2 1 N 1012,5 14 0,0
18.10.2018 05:00:00 13,6 12,7 2 1 NNW 1012,6 19 -
18.10.2018 04:00:00 13,8 12,5 4 2 W 1012,7 9 0,8
18.10.2018 03:00:00 13,7 12,8 2 1 NNW 1012,8 17 0,2
18.10.2018 02:00:00 13,8 12,9 2 1 S 1012,6 8 -
18.10.2018 01:00:00 14,1 13,1 2 1 NNW 1013,1 10 1,0
18.10.2018 00:00:00 14,4 13,3 2 1 NNW 1013,5 3,2 0,6
17.10.2018 23:00:00 14,6 13,5 4 2 WNW 1013,7 17 -
17.10.2018 22:00:00 14,6 13,5 4 2 W 1013,7 12 0,0
17.10.2018 21:00:00 14,7 13,6 2 1 E 1013,8 12 0,0
17.10.2018 20:00:00 14,7 13,4 2 1 WNW 1013,5 17 -
17.10.2018 19:00:00 14,8 13,5 2 1 ESE 1013,5 11 1,0
17.10.2018 18:00:00 14,9 13,4 2 1 SE 1014,0 2,4 2,0
17.10.2018 17:00:00 15,7 13,2 5 3 W 1014,4 4,6 -
17.10.2018 16:00:00 17,5 13,0 2 1 W - 19 0,0
17.10.2018 15:00:00 17,2 12,7 2 1 NNE 1014,6 20 0,0
17.10.2018 14:00:00 16,2 11,6 4 2 W 1015,6 20 -
17.10.2018 13:00:00 14,9 11,7 4 2 WSW 1016,3 20 0,0
17.10.2018 12:00:00 12,7 10,8 2 1 SE 1017,4 19 0,0
17.10.2018 11:00:00 11,1 10,2 4 2 SW 1017,9 10 -
17.10.2018 10:00:00 10,3 9,4 2 1 S 1018,4 18 0,0
17.10.2018 09:00:00 9,8 9,2 4 2 S 1018,7 13 0,0
17.10.2018 08:00:00 10,0 9,2 4 2 SE 1018,9 1,0 -
17.10.2018 07:00:00 10,4 9,6 2 1 SSE 1018,9 4,1 0,0
17.10.2018 06:00:00 10,4 9,6 0 0 N 1018,8 7 0,0
17.10.2018 05:00:00 10,3 9,1 2 1 WSW 1018,7 20 -
17.10.2018 04:00:00 9,9 8,7 2 1 SSE 1019,1 20 0,0
17.10.2018 03:00:00 10,1 8,5 2 1 W 1019,3 20 0,0
17.10.2018 02:00:00 10,7 9,0 0 0 N 1019,4 20 -
17.10.2018 01:00:00 11,5 9,7 0 0 N 1019,4 20 0,0
17.10.2018 00:00:00 12,5 10,2 2 1 SSE 1019,4 20 0,0
16.10.2018 23:00:00 13,7 10,7 2 1 SSE 1019,0 20 -
16.10.2018 22:00:00 14,7 11,1 2 1 S 1018,3 20 0,0
16.10.2018 21:00:00 16,6 11,7 4 2 W - 20 0,0
16.10.2018 20:00:00 19,7 12,2 2 1 W 1017,0 19 -
16.10.2018 19:00:00 22,8 10,9 5 3 WSW 1016,2 20 0,0
16.10.2018 18:00:00 22,9 10,0 4 2 W 1016,2 20 0,0
16.10.2018 17:00:00 22,3 11,4 5 3 W 1016,2 20 -
16.10.2018 16:00:00 21,2 11,8 4 2 E 1016,5 20 0,0
16.10.2018 15:00:00 18,5 11,6 4 2 NW 1017,0 20 0,0
16.10.2018 14:00:00 15,4 11,4 4 2 SW 1017,8 20 -
16.10.2018 13:00:00 12,5 10,0 4 2 NNW 1018,3 17 0,0
16.10.2018 12:00:00 11,4 10,0 4 2 SSW 1018,3 13 0,0
16.10.2018 11:00:00 10,5 9,6 4 2 SE 1018,0 12 -
16.10.2018 10:00:00 9,9 9,1 2 1 ESE 1017,2 8 0,0
16.10.2018 09:00:00 10,0 9,4 4 2 S 1016,2 7 0,0
16.10.2018 08:00:00 10,2 9,6 5 3 SSE 1015,5 3,8 -
16.10.2018 07:00:00 10,3 9,5 4 2 SSE 1015,0 2,4 0,0
16.10.2018 06:00:00 10,9 10,1 4 2 SSW 1014,4 3,0 0,0
16.10.2018 05:00:00 11,1 10,2 4 2 S 1013,8 9 -
16.10.2018 04:00:00 11,4 10,5 4 2 SE 1013,6 11 0,0
16.10.2018 03:00:00 11,7 10,6 2 1 S 1013,4 11 0,0
16.10.2018 02:00:00 11,6 10,2 2 1 W 1013,1 20 -
16.10.2018 01:00:00 11,6 10,3 2 1 WSW 1012,7 20 0,0
16.10.2018 00:00:00 12,0 10,1 0 0 N 1012,3 20 0,0
15.10.2018 23:00:00 13,3 11,0 2 1 WSW 1011,1 20 -
15.10.2018 22:00:00 14,9 11,7 2 1 E 1010,4 20 0,0
15.10.2018 21:00:00 16,2 12,2 4 2 W 1009,4 20 0,0
15.10.2018 20:00:00 16,9 11,6 2 1 WNW 1008,6 20 -
15.10.2018 19:00:00 17,4 11,7 2 1 SW 1008,0 19 0,0
15.10.2018 18:00:00 17,8 10,4 8 4 ESE 1007,3 20 0,0
15.10.2018 17:00:00 17,9 11,5 5 3 SSE 1006,4 20 -
15.10.2018 16:00:00 17,0 10,8 8 4 SSE 1006,1 20 0,0

tt = Température de l'air
td = dewpoint
ff = Vitesse du vent
dd = Direction du vent
ppp = reduced air pressure
vv = visibility
rr = Quantités de précipitations

stations d'obs. à proximité